Regional Weather Roundup
Issued by NWS Albany, NY

Home | Current Version | Previous Version | Text Only | Print | Product List | Glossary On
Versions: 1 2 3 4 5 6 7 8 9 10 11 12 13 14 15 16 17 18 19 20 21 22 23 24 25 26 27 28 29 30 31 32 33 34 35 36 37 38 39 40 41 42 43 44 45 46 47 48 49
000
ASUS41 KALY 300610
RWRALY

NEW YORK STATE HOURLY WEATHER ROUNDUP
NATIONAL WEATHER SERVICE ALBANY NY
200 AM EDT TUE JUN 30 2015

NOTE: "FAIR" INDICATES FEW OR NO CLOUDS BELOW 12,000 FEET WITH NO
SIGNIFICANT WEATHER AND/OR NO OBSTRUCTIONS TO VISIBILITY.

NYZ032-033-038>043-046>054-057>066-NYZ062>081-300700-
EAST


CITY           SKY/WX    TMP DP  RH WIND       PRES   REMARKS
ALBANY         CLOUDY    62  57  83 CALM      29.96R
GLENS FALLS    CLOUDY    58  55  90 CALM      29.95R
POUGHKEEPSIE   CLOUDY    62  59  90 CALM      29.94S
MONTGOMERY     CLOUDY    63  61  93 CALM      29.95S
WHITE PLAINS   CLOUDY    66  59  78 CALM      29.96R
ISLIP          CLEAR     66  62  87 SW5       29.95S
NEW YORK CITY  PTCLDY    72  57  59 S8        29.95R
CENTRAL PARK   CLEAR     72  56  57 VRB7      29.98R
$$

NYZ005>009-017-018-044>046-055-056-300700-
CENTRAL


CITY           SKY/WX    TMP DP  RH WIND       PRES   REMARKS
FULTON         MOCLDY    57  54  89 CALM      29.93S
SYRACUSE       CLOUDY    58  56  93 E5        29.94S
ROME           MOCLDY    55  53  93 SE3       29.97S
ELMIRA         CLOUDY    61  60  97 VRB3      29.94S
BINGHAMTON     CLOUDY    61  56  83 SE3       29.97S
MONTICELLO     CLOUDY    57  57 100 CALM      29.99S
$$

NYZ026>034-041>043-300700-
NORTH


CITY           SKY/WX    TMP DP  RH WIND       PRES   REMARKS
WATERTOWN      CLEAR     51  50  96 CALM      29.93R
FORT DRUM      NOT AVBL
MASSENA        CLEAR     54  52  93 SW6       29.92S
SARANAC LAKE   CLOUDY    46  45  96 CALM      29.95S FOG
PLATTSBURGH    PTCLDY    54  53  97 S3        29.92S FOG
$$

NYZ001>004-010>016-019>021-300700-
WEST


CITY           SKY/WX    TMP DP  RH WIND       PRES   REMARKS
NIAGARA FALLS  PTCLDY    59  55  87 CALM      29.88F
BUFFALO        CLOUDY    63  57  81 S8        29.89S
DUNKIRK        LGT RAIN  64  59  83 SE6       29.88F
JAMESTOWN      CLOUDY    61  54  77 E8        29.90F
WELLSVILLE     CLOUDY    60  56  86 NE3       29.96F
ROCHESTER      CLOUDY    61  57  87 CALM      29.91F
PENN YAN       CLOUDY    61  59  93 CALM      29.93F
$$

             KEY
       WCI = WIND CHILL INDEX
       VSB = VISIBILITY
       HX  = HEAT INDEX
$$


USA.gov is the U.S. government's official web portal to all federal, state and local government web resources and services.